Thomson Spirit — 9HA2336 — position and weather

sailwx.info

Track history (hours):
 
Tides and Currents Weather Stations Pressure Air Temp Water Temp Dewpoint Dewpoint Depression Visibility Wind Speed Wind Dir Waves Ship Positions

Thomson Spirit

Last reported at 2014-Jul-28 22:18 UTC. Time now 2014-Jul-29 22:58 UTC.
Position N 59°30' E 005°12'.

Length 214 m; draft 7.8 m.

Type: Passenger vessel. MMSI: 248368000.

Date/timePositionNaut miles runAvg speedWind from/ knotsBaromVisibWave heightAir tempDewpointWater temp
2014-Jul-28 22:18N 59°30' E 005°12'1013.5
2014-Jul-28 21:33N 59°20' E 005°06'1413.7
2014-Jul-28 20:33N 59°07' E 005°11'5 4.8
2014-Jul-28 19:33N 59°02' E 005°15'1010.1
2014-Jul-28 18:33N 58°56' E 004°59'30111.6
2014-Jul-27 16:28N 55°12' W 001°12'1313.2
2014-Jul-27 15:29N 55°01' W 001°23'1 0.1
2014-Jul-27 03:19N 55°01' W 001°22'7711.0
2014-Jul-26 20:21N 56°11' W 000°23'1012.7
2014-Jul-26 19:33N 56°20' W 000°15'1914.6
2014-Jul-26 18:16N 56°37' W 000°00'1114.7
2014-Jul-26 17:33N 56°46' E 000°08'1515.0
2014-Jul-26 16:33N 56°60' E 000°20'1615.0
2014-Jul-26 15:29N 57°14' E 000°33'1415.1
2014-Jul-26 14:33N 57°24' E 000°51'1615.6
2014-Jul-26 13:33N 57°30' E 001°18'1615.5
2014-Jul-26 12:33N 57°36' E 001°44'1914.9
2014-Jul-26 11:17N 57°50' E 002°08'1115.5
2014-Jul-26 10:33N 58°01' E 002°16'2215.3
2014-Jul-26 09:07N 58°21' E 002°31'  
2014-Jul-23 17:07N 64°50' E 011°10'813.4
2014-Jul-23 16:33N 64°56' E 011°22'40 3.9
2014-Jul-23 06:27N 65°30' E 012°12'4214.4
2014-Jul-23 03:33N 66°10' E 012°39'1313.1
2014-Jul-23 02:33N 66°18' E 012°14'1413.5
2014-Jul-23 01:33N 66°27' E 011°50'1514.9
2014-Jul-23 00:33N 66°42' E 012°02'1515.4
2014-Jul-22 23:33N 66°55' E 012°18'1615.5
2014-Jul-22 22:33N 67°10' E 012°34'2115.7
2014-Jul-22 21:12N 67°29' E 012°56'19 1.2
2014-Jul-22 04:26N 67°48' E 012°56'  
Track history (hours):
 
Tides and Currents Weather Stations Pressure Air Temp Water Temp Dewpoint Dewpoint Depression Visibility Wind Speed Wind Dir Waves Ship Positions

Thomson Spirit

Last reported at 2014-Jul-28 22:18 UTC. Time now 2014-Jul-29 22:58 UTC.
Position N 59°30' E 005°12'.

Length 214 m; draft 7.8 m.

Type: Passenger vessel. MMSI: 248368000.

Date/timePositionNaut miles runAvg speedWind from/ knotsBaromVisibWave heightAir tempDewpointWater temp
2014-Jul-28 22:18N 59°30' E 005°12'1013.5
2014-Jul-28 21:33N 59°20' E 005°06'1413.7
2014-Jul-28 20:33N 59°07' E 005°11'5 4.8
2014-Jul-28 19:33N 59°02' E 005°15'1010.1
2014-Jul-28 18:33N 58°56' E 004°59'30111.6
2014-Jul-27 16:28N 55°12' W 001°12'1313.2
2014-Jul-27 15:29N 55°01' W 001°23'1 0.1
2014-Jul-27 03:19N 55°01' W 001°22'7711.0
2014-Jul-26 20:21N 56°11' W 000°23'1012.7
2014-Jul-26 19:33N 56°20' W 000°15'1914.6
2014-Jul-26 18:16N 56°37' W 000°00'1114.7
2014-Jul-26 17:33N 56°46' E 000°08'1515.0
2014-Jul-26 16:33N 56°60' E 000°20'1615.0
2014-Jul-26 15:29N 57°14' E 000°33'1415.1
2014-Jul-26 14:33N 57°24' E 000°51'1615.6
2014-Jul-26 13:33N 57°30' E 001°18'1615.5
2014-Jul-26 12:33N 57°36' E 001°44'1914.9
2014-Jul-26 11:17N 57°50' E 002°08'1115.5
2014-Jul-26 10:33N 58°01' E 002°16'2215.3
2014-Jul-26 09:07N 58°21' E 002°31'  
2014-Jul-23 17:07N 64°50' E 011°10'813.4
2014-Jul-23 16:33N 64°56' E 011°22'40 3.9
2014-Jul-23 06:27N 65°30' E 012°12'4214.4
2014-Jul-23 03:33N 66°10' E 012°39'1313.1
2014-Jul-23 02:33N 66°18' E 012°14'1413.5
2014-Jul-23 01:33N 66°27' E 011°50'1514.9
2014-Jul-23 00:33N 66°42' E 012°02'1515.4
2014-Jul-22 23:33N 66°55' E 012°18'1615.5
2014-Jul-22 22:33N 67°10' E 012°34'2115.7
2014-Jul-22 21:12N 67°29' E 012°56'19 1.2
2014-Jul-22 04:26N 67°48' E 012°56'  

Dump ship's entire track history